owner,sensor,date,latitude,longitude,vertical_datum,wind_speed,wind_to_direction,wind_speed_of_gust,qcFlag 
LOOP,urn:ioos:station:wmo:lopl1:1,2016-07-01T01:58:00Z,28.8850,-90.0250,10.0,2.2,311.0,3.3,'11111222,11111222,11111222' 
LOOP,urn:ioos:station:wmo:lopl1:1,2016-07-01T02:58:00Z,28.8850,-90.0250,10.0,1.1,7.0,1.8,'11111222,11111222,11111222' 
LOOP,urn:ioos:station:wmo:lopl1:1,2016-07-01T03:58:00Z,28.8850,-90.0250,10.0,1.4,120.0,2.2,'11111222,11111222,11111222' 
LOOP,urn:ioos:station:wmo:lopl1:1,2016-07-01T05:03:00Z,28.8850,-90.0250,10.0,2.5,132.0,3.5,'11111222,11111222,11111222' 
LOOP,urn:ioos:station:wmo:lopl1:1,2016-07-01T06:03:00Z,28.8850,-90.0250,10.0,1.8,100.0,3.1,'11111222,11111222,11111222' 
LOOP,urn:ioos:station:wmo:lopl1:1,2016-07-01T07:03:00Z,28.8850,-90.0250,10.0,3.7,157.0,5.0,'11111222,11111222,11111222' 
LOOP,urn:ioos:station:wmo:lopl1:1,2016-07-01T08:03:00Z,28.8850,-90.0250,10.0,4.3,-9999.0,5.1,'11111222,99999999,11111222' 
LOOP,urn:ioos:station:wmo:lopl1:1,2016-07-01T09:03:00Z,28.8850,-90.0250,10.0,3.8,-9999.0,4.8,'11111222,99999999,11111222' 
LOOP,urn:ioos:station:wmo:lopl1:1,2016-07-01T10:03:00Z,28.8850,-90.0250,10.0,3.9,263.0,5.1,'11111222,11111222,11111222' 
LOOP,urn:ioos:station:wmo:lopl1:1,2016-07-01T11:03:00Z,28.8850,-90.0250,10.0,3.5,279.0,5.3,'11111222,11111222,11111222' 
LOOP,urn:ioos:station:wmo:lopl1:1,2016-07-01T12:03:00Z,28.8850,-90.0250,10.0,1.9,314.0,3.2,'11111222,11111222,11111222' 
LOOP,urn:ioos:station:wmo:lopl1:1,2016-07-01T13:03:00Z,28.8850,-90.0250,10.0,2.0,318.0,3.4,'11111222,11111222,11111222' 
LOOP,urn:ioos:station:wmo:lopl1:1,2016-07-01T14:03:00Z,28.8850,-90.0250,10.0,2.3,329.0,4.0,'11111222,11111222,11111222' 
LOOP,urn:ioos:station:wmo:lopl1:1,2016-07-01T15:03:00Z,28.8850,-90.0250,10.0,2.6,336.0,3.9,'11111222,11111222,11111222' 
LOOP,urn:ioos:station:wmo:lopl1:1,2016-07-01T16:03:00Z,28.8850,-90.0250,10.0,2.8,336.0,3.5,'11111222,11111222,11111222' 
LOOP,urn:ioos:station:wmo:lopl1:1,2016-07-01T17:03:00Z,28.8850,-90.0250,10.0,1.7,305.0,3.0,'11111222,11111222,11111222' 
LOOP,urn:ioos:station:wmo:lopl1:1,2016-07-01T18:03:00Z,28.8850,-90.0250,10.0,1.9,318.0,3.6,'11111222,11111222,11111222' 
LOOP,urn:ioos:station:wmo:lopl1:1,2016-07-01T19:03:00Z,28.8850,-90.0250,10.0,1.0,274.0,2.7,'11111222,11111222,11111222' 
LOOP,urn:ioos:station:wmo:lopl1:1,2016-07-01T20:03:00Z,28.8850,-90.0250,10.0,1.8,-9999.0,3.3,'11111222,99999999,11111222' 
LOOP,urn:ioos:station:wmo:lopl1:1,2016-07-01T21:03:00Z,28.8850,-90.0250,10.0,1.4,278.0,2.5,'11111222,11111222,11111222' 
LOOP,urn:ioos:station:wmo:lopl1:1,2016-07-01T22:03:00Z,28.8850,-90.0250,10.0,1.1,281.0,2.3,'11111222,11111222,11111222' 
LOOP,urn:ioos:station:wmo:lopl1:1,2016-07-01T23:03:00Z,28.8850,-90.0250,10.0,1.4,123.0,2.0,'11111222,11111222,11111222' 
LOOP,urn:ioos:station:wmo:lopl1:1,2016-07-02T00:03:00Z,28.8850,-90.0250,10.0,1.2,135.0,1.7,'11111222,11111222,11111222' 
LOOP,urn:ioos:station:wmo:lopl1:1,2016-07-02T01:03:00Z,28.8850,-90.0250,10.0,1.7,172.0,2.6,'11111222,11111222,11111222' 
LOOP,urn:ioos:station:wmo:lopl1:1,2016-07-02T02:03:00Z,28.8850,-90.0250,10.0,1.2,-9999.0,1.8,'11111222,99999999,11111222' 
LOOP,urn:ioos:station:wmo:lopl1:1,2016-07-02T03:03:00Z,28.8850,-90.0250,10.0,1.4,-9999.0,2.1,'11111222,99999999,11111222' 
LOOP,urn:ioos:station:wmo:lopl1:1,2016-07-02T04:03:00Z,28.8850,-90.0250,10.0,1.0,313.0,2.1,'11111222,11111222,11111222' 
LOOP,urn:ioos:station:wmo:lopl1:1,2016-07-02T05:03:00Z,28.8850,-90.0250,10.0,1.4,-9999.0,2.0,'11111222,99999999,11111222' 
LOOP,urn:ioos:station:wmo:lopl1:1,2016-07-02T06:18:00Z,28.8850,-90.0250,10.0,1.8,-9999.0,2.4,'11111222,99999999,11111222' 
LOOP,urn:ioos:station:wmo:lopl1:1,2016-07-02T07:18:00Z,28.8850,-90.0250,10.0,2.5,-9999.0,2.8,'11111222,99999999,11111222' 
LOOP,urn:ioos:station:wmo:lopl1:1,2016-07-02T08:23:00Z,28.8850,-90.0250,10.0,2.9,-9999.0,3.7,'11111222,99999999,11111222' 
LOOP,urn:ioos:station:wmo:lopl1:1,2016-07-02T09:23:00Z,28.8850,-90.0250,10.0,3.1,-9999.0,4.2,'11111222,99999999,11111222' 
LOOP,urn:ioos:station:wmo:lopl1:1,2016-07-02T10:23:00Z,28.8850,-90.0250,10.0,3.9,269.0,4.8,'11111222,11111222,11111222' 
LOOP,urn:ioos:station:wmo:lopl1:1,2016-07-02T11:23:00Z,28.8850,-90.0250,10.0,3.4,279.0,4.5,'11111222,11111222,11111222' 
LOOP,urn:ioos:station:wmo:lopl1:1,2016-07-02T12:23:00Z,28.8850,-90.0250,10.0,2.9,293.0,4.1,'11111222,11111222,11111222' 
LOOP,urn:ioos:station:wmo:lopl1:1,2016-07-02T13:23:00Z,28.8850,-90.0250,10.0,2.8,304.0,3.9,'11111222,11111222,11111222' 
LOOP,urn:ioos:station:wmo:lopl1:1,2016-07-02T14:23:00Z,28.8850,-90.0250,10.0,1.6,299.0,3.0,'11111222,11111222,11111222' 
LOOP,urn:ioos:station:wmo:lopl1:1,2016-07-02T15:23:00Z,28.8850,-90.0250,10.0,0.8,-9999.0,2.4,'11111222,99999999,11111222' 
LOOP,urn:ioos:station:wmo:lopl1:1,2016-07-02T16:23:00Z,28.8850,-90.0250,10.0,0.8,-9999.0,1.7,'11111222,99999999,11111222' 
LOOP,urn:ioos:station:wmo:lopl1:1,2016-07-02T17:23:00Z,28.8850,-90.0250,10.0,0.4,65.0,0.8,'11111222,11111222,11111222' 
LOOP,urn:ioos:station:wmo:lopl1:1,2016-07-02T18:23:00Z,28.8850,-90.0250,10.0,0.7,108.0,1.1,'11111222,11111222,11111222' 
LOOP,urn:ioos:station:wmo:lopl1:1,2016-07-02T19:23:00Z,28.8850,-90.0250,10.0,2.2,158.0,2.8,'11111222,11111222,11111222' 
LOOP,urn:ioos:station:wmo:lopl1:1,2016-07-02T20:23:00Z,28.8850,-90.0250,10.0,3.3,160.0,4.5,'11111222,11111222,11111222' 
LOOP,urn:ioos:station:wmo:lopl1:1,2016-07-02T21:23:00Z,28.8850,-90.0250,10.0,3.3,-9999.0,4.6,'11111222,99999999,11111222' 
LOOP,urn:ioos:station:wmo:lopl1:1,2016-07-02T22:23:00Z,28.8850,-90.0250,10.0,3.2,-9999.0,4.5,'11111222,99999999,11111222' 
LOOP,urn:ioos:station:wmo:lopl1:1,2016-07-02T23:23:00Z,28.8850,-90.0250,10.0,3.2,-9999.0,4.3,'11111222,99999999,11111222' 
LOOP,urn:ioos:station:wmo:lopl1:1,2016-07-03T00:23:00Z,28.8850,-90.0250,10.0,3.1,-9999.0,4.0,'11111222,99999999,11111222' 
LOOP,urn:ioos:station:wmo:lopl1:1,2016-07-03T01:23:00Z,28.8850,-90.0250,10.0,3.7,-9999.0,4.5,'11111222,99999999,11111222' 
LOOP,urn:ioos:station:wmo:lopl1:1,2016-07-03T02:23:00Z,28.8850,-90.0250,10.0,3.6,-9999.0,4.6,'11111222,99999999,11111222' 
LOOP,urn:ioos:station:wmo:lopl1:1,2016-07-03T03:23:00Z,28.8850,-90.0250,10.0,2.7,-9999.0,3.5,'11111222,99999999,11111222' 
LOOP,urn:ioos:station:wmo:lopl1:1,2016-07-03T04:23:00Z,28.8850,-90.0250,10.0,3.6,-9999.0,4.5,'11111222,99999999,11111222' 
LOOP,urn:ioos:station:wmo:lopl1:1,2016-07-03T05:23:00Z,28.8850,-90.0250,10.0,3.8,-9999.0,4.4,'11111222,99999999,11111222' 
LOOP,urn:ioos:station:wmo:lopl1:1,2016-07-03T06:23:00Z,28.8850,-90.0250,10.0,3.5,-9999.0,4.5,'11111222,99999999,11111222' 
LOOP,urn:ioos:station:wmo:lopl1:1,2016-07-03T07:23:00Z,28.8850,-90.0250,10.0,3.8,-9999.0,4.8,'11111222,99999999,11111222' 
LOOP,urn:ioos:station:wmo:lopl1:1,2016-07-03T08:23:00Z,28.8850,-90.0250,10.0,4.9,-9999.0,6.2,'11111222,99999999,11111222' 
LOOP,urn:ioos:station:wmo:lopl1:1,2016-07-03T09:23:00Z,28.8850,-90.0250,10.0,3.9,-9999.0,5.0,'11111222,99999999,11111222' 
LOOP,urn:ioos:station:wmo:lopl1:1,2016-07-03T10:23:00Z,28.8850,-90.0250,10.0,3.7,-9999.0,4.7,'11111222,99999999,11111222' 
LOOP,urn:ioos:station:wmo:lopl1:1,2016-07-03T11:23:00Z,28.8850,-90.0250,10.0,3.0,261.0,4.6,'11111222,11111222,11111222' 
LOOP,urn:ioos:station:wmo:lopl1:1,2016-07-03T12:23:00Z,28.8850,-90.0250,10.0,1.7,-9999.0,3.0,'11111222,99999999,11111222' 
LOOP,urn:ioos:station:wmo:lopl1:1,2016-07-03T13:23:00Z,28.8850,-90.0250,10.0,7.2,-9999.0,9.4,'11111222,99999999,11111222' 
LOOP,urn:ioos:station:wmo:lopl1:1,2016-07-03T14:23:00Z,28.8850,-90.0250,10.0,5.5,265.0,7.8,'11111222,11111222,11111222' 
LOOP,urn:ioos:station:wmo:lopl1:1,2016-07-03T15:23:00Z,28.8850,-90.0250,10.0,6.3,-9999.0,8.2,'11111222,99999999,11111222' 
LOOP,urn:ioos:station:wmo:lopl1:1,2016-07-03T16:23:00Z,28.8850,-90.0250,10.0,5.8,-9999.0,7.2,'11111222,99999999,11111222' 
LOOP,urn:ioos:station:wmo:lopl1:1,2016-07-03T17:28:00Z,28.8850,-90.0250,10.0,6.3,-9999.0,8.3,'11111222,99999999,11111222' 
LOOP,urn:ioos:station:wmo:lopl1:1,2016-07-03T18:28:00Z,28.8850,-90.0250,10.0,6.6,-9999.0,8.3,'11111222,99999999,11111222' 
LOOP,urn:ioos:station:wmo:lopl1:1,2016-07-03T19:28:00Z,28.8850,-90.0250,10.0,6.9,272.0,8.5,'11111222,11111222,11111222' 
LOOP,urn:ioos:station:wmo:lopl1:1,2016-07-03T20:28:00Z,28.8850,-90.0250,10.0,5.9,286.0,7.3,'11111222,11111222,11111222' 
LOOP,urn:ioos:station:wmo:lopl1:1,2016-07-03T21:38:00Z,28.8850,-90.0250,10.0,5.6,283.0,6.7,'11111222,11111222,11111222' 
LOOP,urn:ioos:station:wmo:lopl1:1,2016-07-03T22:48:00Z,28.8850,-90.0250,10.0,4.7,-9999.0,5.9,'11111222,99999999,11111222' 
LOOP,urn:ioos:station:wmo:lopl1:1,2016-07-03T23:48:00Z,28.8850,-90.0250,10.0,3.9,265.0,5.1,'11111222,11111222,11111222' 
LOOP,urn:ioos:station:wmo:lopl1:1,2016-07-04T00:48:00Z,28.8850,-90.0250,10.0,4.4,-9999.0,5.7,'11111222,99999999,11111222' 
LOOP,urn:ioos:station:wmo:lopl1:1,2016-07-04T01:48:00Z,28.8850,-90.0250,10.0,5.1,-9999.0,6.1,'11111222,99999999,11111222' 
LOOP,urn:ioos:station:wmo:lopl1:1,2016-07-04T02:48:00Z,28.8850,-90.0250,10.0,6.2,-9999.0,7.0,'11111222,99999999,11111222' 
LOOP,urn:ioos:station:wmo:lopl1:1,2016-07-04T03:48:00Z,28.8850,-90.0250,10.0,7.2,-9999.0,8.3,'11111222,99999999,11111222' 
LOOP,urn:ioos:station:wmo:lopl1:1,2016-07-04T04:48:00Z,28.8850,-90.0250,10.0,8.3,-9999.0,9.4,'11111222,99999999,11111222' 
LOOP,urn:ioos:station:wmo:lopl1:1,2016-07-04T05:48:00Z,28.8850,-90.0250,10.0,8.4,-9999.0,10.8,'11111222,99999999,11111222' 
LOOP,urn:ioos:station:wmo:lopl1:1,2016-07-04T06:48:00Z,28.8850,-90.0250,10.0,9.5,-9999.0,10.6,'11111222,99999999,11111222' 
LOOP,urn:ioos:station:wmo:lopl1:1,2016-07-04T07:48:00Z,28.8850,-90.0250,10.0,9.6,-9999.0,11.0,'11111222,99999999,11111222' 
LOOP,urn:ioos:station:wmo:lopl1:1,2016-07-04T08:48:00Z,28.8850,-90.0250,10.0,8.9,-9999.0,9.5,'11111222,99999999,11111222' 
LOOP,urn:ioos:station:wmo:lopl1:1,2016-07-04T09:48:00Z,28.8850,-90.0250,10.0,7.7,-9999.0,8.9,'11111222,99999999,11111222' 
LOOP,urn:ioos:station:wmo:lopl1:1,2016-07-04T10:48:00Z,28.8850,-90.0250,10.0,8.3,-9999.0,9.7,'11111222,99999999,11111222' 
LOOP,urn:ioos:station:wmo:lopl1:1,2016-07-04T11:48:00Z,28.8850,-90.0250,10.0,7.4,-9999.0,8.4,'11111222,99999999,11111222' 
LOOP,urn:ioos:station:wmo:lopl1:1,2016-07-04T12:48:00Z,28.8850,-90.0250,10.0,6.5,-9999.0,7.2,'11111222,99999999,11111222' 
LOOP,urn:ioos:station:wmo:lopl1:1,2016-07-04T13:48:00Z,28.8850,-90.0250,10.0,6.4,-9999.0,7.1,'11111222,99999999,11111222' 
LOOP,urn:ioos:station:wmo:lopl1:1,2016-07-04T14:48:00Z,28.8850,-90.0250,10.0,6.2,-9999.0,6.9,'11111222,99999999,11111222' 
LOOP,urn:ioos:station:wmo:lopl1:1,2016-07-04T15:48:00Z,28.8850,-90.0250,10.0,5.3,-9999.0,6.1,'11111222,99999999,11111222' 
LOOP,urn:ioos:station:wmo:lopl1:1,2016-07-04T16:48:00Z,28.8850,-90.0250,10.0,6.6,-9999.0,7.3,'11111222,99999999,11111222' 
LOOP,urn:ioos:station:wmo:lopl1:1,2016-07-04T17:48:00Z,28.8850,-90.0250,10.0,6.9,-9999.0,7.9,'11111222,99999999,11111222' 
LOOP,urn:ioos:station:wmo:lopl1:1,2016-07-04T18:48:00Z,28.8850,-90.0250,10.0,6.5,-9999.0,7.5,'11111222,99999999,11111222' 
LOOP,urn:ioos:station:wmo:lopl1:1,2016-07-04T19:48:00Z,28.8850,-90.0250,10.0,6.8,-9999.0,7.7,'11111222,99999999,11111222' 
LOOP,urn:ioos:station:wmo:lopl1:1,2016-07-04T20:48:00Z,28.8850,-90.0250,10.0,6.1,-9999.0,7.5,'11111222,99999999,11111222' 
LOOP,urn:ioos:station:wmo:lopl1:1,2016-07-04T21:48:00Z,28.8850,-90.0250,10.0,6.2,-9999.0,7.2,'11111222,99999999,11111222' 
LOOP,urn:ioos:station:wmo:lopl1:1,2016-07-04T22:48:00Z,28.8850,-90.0250,10.0,6.3,-9999.0,7.4,'11111222,99999999,11111222' 
LOOP,urn:ioos:station:wmo:lopl1:1,2016-07-04T23:48:00Z,28.8850,-90.0250,10.0,5.9,-9999.0,6.9,'11111222,99999999,11111222' 
LOOP,urn:ioos:station:wmo:lopl1:1,2016-07-05T00:48:00Z,28.8850,-90.0250,10.0,6.1,-9999.0,7.8,'11111222,99999999,11111222' 
LOOP,urn:ioos:station:wmo:lopl1:1,2016-07-05T01:49:00Z,28.8850,-90.0250,10.0,6.0,-9999.0,6.8,'11111222,99999999,11111222' 
LOOP,urn:ioos:station:wmo:lopl1:1,2016-07-05T02:49:00Z,28.8850,-90.0250,10.0,7.4,-9999.0,8.3,'11111222,99999999,11111222' 
LOOP,urn:ioos:station:wmo:lopl1:1,2016-07-05T03:49:00Z,28.8850,-90.0250,10.0,7.2,-9999.0,8.2,'11111222,99999999,11111222' 
LOOP,urn:ioos:station:wmo:lopl1:1,2016-07-05T04:49:00Z,28.8850,-90.0250,10.0,7.0,-9999.0,7.9,'11111222,99999999,11111222' 
LOOP,urn:ioos:station:wmo:lopl1:1,2016-07-05T05:49:00Z,28.8850,-90.0250,10.0,6.5,-9999.0,7.5,'11111222,99999999,11111222' 
LOOP,urn:ioos:station:wmo:lopl1:1,2016-07-05T06:49:00Z,28.8850,-90.0250,10.0,8.1,-9999.0,9.7,'11111222,99999999,11111222' 
LOOP,urn:ioos:station:wmo:lopl1:1,2016-07-05T07:49:00Z,28.8850,-90.0250,10.0,9.7,-9999.0,10.6,'11111222,99999999,11111222' 
LOOP,urn:ioos:station:wmo:lopl1:1,2016-07-05T08:49:00Z,28.8850,-90.0250,10.0,8.9,-9999.0,10.2,'11111222,99999999,11111222' 
LOOP,urn:ioos:station:wmo:lopl1:1,2016-07-05T09:49:00Z,28.8850,-90.0250,10.0,8.7,-9999.0,10.3,'11111222,99999999,11111222' 
LOOP,urn:ioos:station:wmo:lopl1:1,2016-07-05T10:49:00Z,28.8850,-90.0250,10.0,8.7,-9999.0,9.6,'11111222,99999999,11111222' 
LOOP,urn:ioos:station:wmo:lopl1:1,2016-07-05T11:50:00Z,28.8850,-90.0250,10.0,7.7,-9999.0,8.5,'11111222,99999999,11111222' 
LOOP,urn:ioos:station:wmo:lopl1:1,2016-07-05T12:50:00Z,28.8850,-90.0250,10.0,8.9,-9999.0,9.8,'11111222,99999999,11111222' 
LOOP,urn:ioos:station:wmo:lopl1:1,2016-07-05T13:50:00Z,28.8850,-90.0250,10.0,7.1,-9999.0,8.6,'11111222,99999999,11111222' 
LOOP,urn:ioos:station:wmo:lopl1:1,2016-07-05T14:50:00Z,28.8850,-90.0250,10.0,6.5,-9999.0,8.8,'11111222,99999999,11111222' 
LOOP,urn:ioos:station:wmo:lopl1:1,2016-07-05T15:50:00Z,28.8850,-90.0250,10.0,6.5,-9999.0,7.4,'11111222,99999999,11111222' 
LOOP,urn:ioos:station:wmo:lopl1:1,2016-07-05T17:01:00Z,28.8850,-90.0250,10.0,5.6,-9999.0,7.4,'11111222,99999999,11111222' 
LOOP,urn:ioos:station:wmo:lopl1:1,2016-07-05T18:01:00Z,28.8850,-90.0250,10.0,5.3,289.0,6.7,'11111222,11111222,11111222' 
LOOP,urn:ioos:station:wmo:lopl1:1,2016-07-05T19:01:00Z,28.8850,-90.0250,10.0,4.9,-9999.0,6.6,'11111222,99999999,11111222' 
LOOP,urn:ioos:station:wmo:lopl1:1,2016-07-05T20:01:00Z,28.8850,-90.0250,10.0,4.8,-9999.0,6.5,'11111222,99999999,11111222' 
LOOP,urn:ioos:station:wmo:lopl1:1,2016-07-05T21:01:00Z,28.8850,-90.0250,10.0,4.5,-9999.0,5.9,'11111222,99999999,11111222' 
LOOP,urn:ioos:station:wmo:lopl1:1,2016-07-05T22:02:00Z,28.8850,-90.0250,10.0,4.1,-9999.0,5.3,'11111222,99999999,11111222' 
LOOP,urn:ioos:station:wmo:lopl1:1,2016-07-05T23:03:00Z,28.8850,-90.0250,10.0,5.1,-9999.0,6.2,'11111222,99999999,11111222' 
LOOP,urn:ioos:station:wmo:lopl1:1,2016-07-06T00:03:00Z,28.8850,-90.0250,10.0,5.1,-9999.0,6.2,'11111222,99999999,11111222' 
LOOP,urn:ioos:station:wmo:lopl1:1,2016-07-06T01:03:00Z,28.8850,-90.0250,10.0,4.5,-9999.0,5.5,'11111222,99999999,11111222' 
LOOP,urn:ioos:station:wmo:lopl1:1,2016-07-06T02:03:00Z,28.8850,-90.0250,10.0,5.8,-9999.0,6.8,'11111222,99999999,11111222' 
LOOP,urn:ioos:station:wmo:lopl1:1,2016-07-06T03:03:00Z,28.8850,-90.0250,10.0,5.0,-9999.0,5.8,'11111222,99999999,11111222' 
LOOP,urn:ioos:station:wmo:lopl1:1,2016-07-06T04:08:00Z,28.8850,-90.0250,10.0,6.3,-9999.0,7.5,'11111222,99999999,11111222' 
LOOP,urn:ioos:station:wmo:lopl1:1,2016-07-06T05:09:00Z,28.8850,-90.0250,10.0,7.6,-9999.0,8.3,'11111222,99999999,11111222' 
LOOP,urn:ioos:station:wmo:lopl1:1,2016-07-06T06:09:00Z,28.8850,-90.0250,10.0,8.6,-9999.0,10.8,'11111222,99999999,11111222' 
LOOP,urn:ioos:station:wmo:lopl1:1,2016-07-06T07:09:00Z,28.8850,-90.0250,10.0,8.4,-9999.0,9.2,'11111222,99999999,11111222' 
LOOP,urn:ioos:station:wmo:lopl1:1,2016-07-06T07:19:00Z,28.8850,-90.0250,10.0,8.1,-9999.0,9.2,'11111222,99999999,11111222' 
LOOP,urn:ioos:station:wmo:lopl1:1,2016-07-06T08:19:00Z,28.8850,-90.0250,10.0,8.4,-9999.0,9.5,'11111222,99999999,11111222' 
LOOP,urn:ioos:station:wmo:lopl1:1,2016-07-06T09:19:00Z,28.8850,-90.0250,10.0,8.2,-9999.0,9.5,'11111222,99999999,11111222' 
LOOP,urn:ioos:station:wmo:lopl1:1,2016-07-06T10:19:00Z,28.8850,-90.0250,10.0,7.9,-9999.0,8.6,'11111222,99999999,11111222' 
LOOP,urn:ioos:station:wmo:lopl1:1,2016-07-06T11:19:00Z,28.8850,-90.0250,10.0,7.5,-9999.0,8.4,'11111222,99999999,11111222' 
LOOP,urn:ioos:station:wmo:lopl1:1,2016-07-06T12:19:00Z,28.8850,-90.0250,10.0,6.4,-9999.0,8.4,'11111222,99999999,11111222' 
LOOP,urn:ioos:station:wmo:lopl1:1,2016-07-06T13:19:00Z,28.8850,-90.0250,10.0,6.6,-9999.0,7.5,'11111222,99999999,11111222' 
LOOP,urn:ioos:station:wmo:lopl1:1,2016-07-06T14:19:00Z,28.8850,-90.0250,10.0,5.7,-9999.0,6.6,'11111222,99999999,11111222' 
LOOP,urn:ioos:station:wmo:lopl1:1,2016-07-06T15:19:00Z,28.8850,-90.0250,10.0,4.8,-9999.0,5.4,'11111222,99999999,11111222' 
LOOP,urn:ioos:station:wmo:lopl1:1,2016-07-06T16:19:00Z,28.8850,-90.0250,10.0,3.7,162.0,4.6,'11111222,11111222,11111222' 
LOOP,urn:ioos:station:wmo:lopl1:1,2016-07-06T17:19:00Z,28.8850,-90.0250,10.0,3.8,-9999.0,4.8,'11111222,99999999,11111222' 
LOOP,urn:ioos:station:wmo:lopl1:1,2016-07-06T18:19:00Z,28.8850,-90.0250,10.0,3.3,-9999.0,4.3,'11111222,99999999,11111222' 
LOOP,urn:ioos:station:wmo:lopl1:1,2016-07-06T19:29:00Z,28.8850,-90.0250,10.0,3.0,-9999.0,3.9,'11111222,99999999,11111222' 
LOOP,urn:ioos:station:wmo:lopl1:1,2016-07-06T20:29:00Z,28.8850,-90.0250,10.0,2.8,-9999.0,3.6,'11111222,99999999,11111222' 
LOOP,urn:ioos:station:wmo:lopl1:1,2016-07-06T21:29:00Z,28.8850,-90.0250,10.0,3.4,-9999.0,4.1,'11111222,99999999,11111222' 
LOOP,urn:ioos:station:wmo:lopl1:1,2016-07-06T22:29:00Z,28.8850,-90.0250,10.0,3.8,177.0,5.2,'11111222,11111222,11111222' 
LOOP,urn:ioos:station:wmo:lopl1:1,2016-07-06T23:29:00Z,28.8850,-90.0250,10.0,4.0,171.0,4.8,'11111222,11111222,11111222' 
LOOP,urn:ioos:station:wmo:lopl1:1,2016-07-07T00:29:00Z,28.8850,-90.0250,10.0,3.9,176.0,5.0,'11111222,11111222,11111222' 
LOOP,urn:ioos:station:wmo:lopl1:1,2016-07-07T01:29:00Z,28.8850,-90.0250,10.0,4.5,169.0,5.8,'11111222,11111222,11111222' 
LOOP,urn:ioos:station:wmo:lopl1:1,2016-07-07T02:29:00Z,28.8850,-90.0250,10.0,3.3,173.0,4.3,'11111222,11111222,11111222' 
LOOP,urn:ioos:station:wmo:lopl1:1,2016-07-07T03:29:00Z,28.8850,-90.0250,10.0,4.3,179.0,5.4,'11111222,11111222,11111222' 
LOOP,urn:ioos:station:wmo:lopl1:1,2016-07-07T04:29:00Z,28.8850,-90.0250,10.0,5.6,168.0,7.0,'11111222,11111222,11111222' 
LOOP,urn:ioos:station:wmo:lopl1:1,2016-07-07T05:29:00Z,28.8850,-90.0250,10.0,5.9,176.0,7.0,'11111222,11111222,11111222' 
LOOP,urn:ioos:station:wmo:lopl1:1,2016-07-07T06:29:00Z,28.8850,-90.0250,10.0,5.0,162.0,6.3,'11111222,11111222,11111222' 
LOOP,urn:ioos:station:wmo:lopl1:1,2016-07-07T07:44:00Z,28.8850,-90.0250,10.0,5.7,171.0,7.0,'11111222,11111222,11111222' 
LOOP,urn:ioos:station:wmo:lopl1:1,2016-07-07T08:44:00Z,28.8850,-90.0250,10.0,6.1,-9999.0,7.2,'11111222,99999999,11111222' 
LOOP,urn:ioos:station:wmo:lopl1:1,2016-07-07T09:44:00Z,28.8850,-90.0250,10.0,6.9,-9999.0,8.1,'11111222,99999999,11111222' 
LOOP,urn:ioos:station:wmo:lopl1:1,2016-07-07T10:44:00Z,28.8850,-90.0250,10.0,6.8,-9999.0,8.0,'11111222,99999999,11111222' 
LOOP,urn:ioos:station:wmo:lopl1:1,2016-07-07T11:44:00Z,28.8850,-90.0250,10.0,5.8,-9999.0,6.5,'11111222,99999999,11111222' 
LOOP,urn:ioos:station:wmo:lopl1:1,2016-07-07T12:44:00Z,28.8850,-90.0250,10.0,4.0,-9999.0,5.0,'11111222,99999999,11111222' 
LOOP,urn:ioos:station:wmo:lopl1:1,2016-07-07T13:44:00Z,28.8850,-90.0250,10.0,4.8,-9999.0,5.5,'11111222,99999999,11111222' 
LOOP,urn:ioos:station:wmo:lopl1:1,2016-07-07T14:44:00Z,28.8850,-90.0250,10.0,3.6,164.0,5.2,'11111222,11111222,11111222' 
LOOP,urn:ioos:station:wmo:lopl1:1,2016-07-07T15:44:00Z,28.8850,-90.0250,10.0,3.3,165.0,4.3,'11111222,11111222,11111222' 
LOOP,urn:ioos:station:wmo:lopl1:1,2016-07-07T16:44:00Z,28.8850,-90.0250,10.0,3.9,-9999.0,5.0,'11111222,99999999,11111222' 
LOOP,urn:ioos:station:wmo:lopl1:1,2016-07-07T17:44:00Z,28.8850,-90.0250,10.0,4.5,-9999.0,5.5,'11111222,99999999,11111222' 
LOOP,urn:ioos:station:wmo:lopl1:1,2016-07-07T18:44:00Z,28.8850,-90.0250,10.0,4.0,173.0,4.7,'11111222,11111222,11111222' 
LOOP,urn:ioos:station:wmo:lopl1:1,2016-07-07T19:44:00Z,28.8850,-90.0250,10.0,4.7,171.0,6.1,'11111222,11111222,11111222' 
LOOP,urn:ioos:station:wmo:lopl1:1,2016-07-07T20:44:00Z,28.8850,-90.0250,10.0,3.9,179.0,5.2,'11111222,11111222,11111222' 
LOOP,urn:ioos:station:wmo:lopl1:1,2016-07-07T21:44:00Z,28.8850,-90.0250,10.0,4.5,-9999.0,5.3,'11111222,99999999,11111222' 
LOOP,urn:ioos:station:wmo:lopl1:1,2016-07-07T22:44:00Z,28.8850,-90.0250,10.0,3.5,173.0,5.2,'11111222,11111222,11111222' 
LOOP,urn:ioos:station:wmo:lopl1:1,2016-07-07T23:44:00Z,28.8850,-90.0250,10.0,5.0,174.0,7.4,'11111222,11111222,11111222' 
LOOP,urn:ioos:station:wmo:lopl1:1,2016-07-08T00:44:00Z,28.8850,-90.0250,10.0,3.4,170.0,4.4,'11111222,11111222,11111222' 
LOOP,urn:ioos:station:wmo:lopl1:1,2016-07-08T01:44:00Z,28.8850,-90.0250,10.0,5.0,-9999.0,6.3,'11111222,99999999,11111222' 
LOOP,urn:ioos:station:wmo:lopl1:1,2016-07-08T02:44:00Z,28.8850,-90.0250,10.0,5.9,169.0,6.8,'11111222,11111222,11111222' 
LOOP,urn:ioos:station:wmo:lopl1:1,2016-07-08T03:44:00Z,28.8850,-90.0250,10.0,4.6,-9999.0,6.0,'11111222,99999999,11111222' 
LOOP,urn:ioos:station:wmo:lopl1:1,2016-07-08T04:44:00Z,28.8850,-90.0250,10.0,5.0,176.0,6.3,'11111222,11111222,11111222' 
LOOP,urn:ioos:station:wmo:lopl1:1,2016-07-08T05:44:00Z,28.8850,-90.0250,10.0,5.9,157.0,6.9,'11111222,11111222,11111222' 
LOOP,urn:ioos:station:wmo:lopl1:1,2016-07-08T06:44:00Z,28.8850,-90.0250,10.0,5.8,175.0,7.1,'11111222,11111222,11111222' 
LOOP,urn:ioos:station:wmo:lopl1:1,2016-07-08T07:44:00Z,28.8850,-90.0250,10.0,5.5,-9999.0,6.8,'11111222,99999999,11111222' 
LOOP,urn:ioos:station:wmo:lopl1:1,2016-07-08T08:49:00Z,28.8850,-90.0250,10.0,5.5,-9999.0,6.8,'11111222,99999999,11111222' 
LOOP,urn:ioos:station:wmo:lopl1:1,2016-07-08T09:49:00Z,28.8850,-90.0250,10.0,7.0,-9999.0,8.1,'11111222,99999999,11111222' 
LOOP,urn:ioos:station:wmo:lopl1:1,2016-07-08T10:49:00Z,28.8850,-90.0250,10.0,6.5,-9999.0,8.1,'11111222,99999999,11111222' 
LOOP,urn:ioos:station:wmo:lopl1:1,2016-07-08T11:49:00Z,28.8850,-90.0250,10.0,5.7,-9999.0,6.5,'11111222,99999999,11111222' 
LOOP,urn:ioos:station:wmo:lopl1:1,2016-07-08T12:49:00Z,28.8850,-90.0250,10.0,5.3,-9999.0,6.3,'11111222,99999999,11111222' 
LOOP,urn:ioos:station:wmo:lopl1:1,2016-07-08T13:49:00Z,28.8850,-90.0250,10.0,3.6,-9999.0,4.5,'11111222,99999999,11111222' 
LOOP,urn:ioos:station:wmo:lopl1:1,2016-07-08T14:49:00Z,28.8850,-90.0250,10.0,3.4,-9999.0,4.0,'11111222,99999999,11111222' 
LOOP,urn:ioos:station:wmo:lopl1:1,2016-07-08T15:49:00Z,28.8850,-90.0250,10.0,3.9,-9999.0,5.3,'11111222,99999999,11111222' 
LOOP,urn:ioos:station:wmo:lopl1:1,2016-07-08T16:49:00Z,28.8850,-90.0250,10.0,1.8,326.0,3.0,'11111222,11111222,11111222' 
LOOP,urn:ioos:station:wmo:lopl1:1,2016-07-08T17:49:00Z,28.8850,-90.0250,10.0,1.1,-9999.0,2.0,'11111222,99999999,11111222' 
LOOP,urn:ioos:station:wmo:lopl1:1,2016-07-08T18:49:00Z,28.8850,-90.0250,10.0,1.4,-9999.0,2.3,'11111222,99999999,11111222' 
LOOP,urn:ioos:station:wmo:lopl1:1,2016-07-08T20:24:00Z,28.8850,-90.0250,10.0,2.6,155.0,3.9,'11111222,11111222,11111222' 
LOOP,urn:ioos:station:wmo:lopl1:1,2016-07-08T20:34:00Z,28.8850,-90.0250,10.0,1.7,-9999.0,2.7,'11111222,99999999,11111222' 
LOOP,urn:ioos:station:wmo:lopl1:1,2016-07-08T21:34:00Z,28.8850,-90.0250,10.0,1.9,179.0,3.0,'11111222,11111222,11111222' 
LOOP,urn:ioos:station:wmo:lopl1:1,2016-07-08T22:34:00Z,28.8850,-90.0250,10.0,2.1,-9999.0,3.2,'11111222,99999999,11111222' 
LOOP,urn:ioos:station:wmo:lopl1:1,2016-07-08T22:44:00Z,28.8850,-90.0250,10.0,2.2,-9999.0,3.4,'11111222,99999999,11111222' 
LOOP,urn:ioos:station:wmo:lopl1:1,2016-07-08T23:44:00Z,28.8850,-90.0250,10.0,3.4,-9999.0,4.2,'11111222,99999999,11111222' 
LOOP,urn:ioos:station:wmo:lopl1:1,2016-07-09T00:44:00Z,28.8850,-90.0250,10.0,4.7,-9999.0,5.5,'11111222,99999999,11111222' 
LOOP,urn:ioos:station:wmo:lopl1:1,2016-07-09T01:44:00Z,28.8850,-90.0250,10.0,5.4,-9999.0,6.2,'11111222,99999999,11111222' 
LOOP,urn:ioos:station:wmo:lopl1:1,2016-07-09T02:44:00Z,28.8850,-90.0250,10.0,4.8,-9999.0,5.4,'11111222,99999999,11111222' 
LOOP,urn:ioos:station:wmo:lopl1:1,2016-07-09T03:44:00Z,28.8850,-90.0250,10.0,5.0,-9999.0,6.7,'11111222,99999999,11111222' 